Weather History for Sheridan, WY

Change the Weather History Date:

Friday, November 1, 2013

  Actual Average Record
Temperature  
Mean Temperature 38 °F 40 °F  
Max Temperature 51 °F 54 °F 74 °F (1965)
Min Temperature 24 °F 26 °F -2 °F (1951)
Degree Days  
Heating Degree Days 27 25  
Month to date heating degree days 27 25  
Since 1 July heating degree days 889 933  
Cooling Degree Days 0 0  
Month to date cooling degree days 0 0  
Year to date cooling degree days 592 419  
Moisture  
Dew Point 26 °F    
Average Humidity 56    
Maximum Humidity 81    
Minimum Humidity 30    
Precipitation  
Precipitation T in 0.03 in 0.60 in (1967)
Month to date precipitation T 0.03  
Year to date precipitation 16.72 12.92  
Sea Level Pressure  
Sea Level Pressure 30.12 in    
Wind  
Wind Speed 13 mph (WNW)    
Max Wind Speed 35 mph    
Max Gust Speed 42 mph    
Visibility 10 miles    
Events Rain    
T = Trace of Precipitation, MM = Missing Value Source: NWS Daily Summary

Daily Weather History Graph

Daily Weather History Graph

Search for Another Location

Airport:

Trip Planner

Search our weather history database for the weather conditions in past years. The results will help you decide how hot, cold, wet, or windy it might be!

Date:

Astronomy

Nov. 01, 2013 Rise Set
Actual Time 7:46 AM MDT 5:56 PM MDT
Civil Twilight 7:15 AM MDT 6:26 PM MDT
Nautical Twilight 6:41 AM MDT 7:01 PM MDT
Astronomical Twilight 6:07 AM MDT 7:35 PM MDT
Moon 5:37 AM MDT (11/1) 4:53 PM MDT (11/1)
Length of Visible Light 11h 10m
Length of Day
10h 09m
Waning Crescent, 4% of the Moon is Illuminated
Nov 1
Waning Crescent
Nov 3
New
Nov 9
First Quarter
Nov 17
Full
Nov 25
Last Quarter

Hourly Weather History & Observations

Time (MDT) Temp. Windchill Dew Point Humidity Pressure Visibility Wind Dir Wind Speed Gust Speed Precip Events Conditions
12:53 AM 39.0 °F 30.3 °F 33.1 °F 79% 29.94 in 10.0 mi WNW 16.1 mph - N/A   Overcast
1:53 AM 39.0 °F 31.8 °F 30.9 °F 73% 29.97 in 10.0 mi NW 11.5 mph 31.1 mph 0.00 in Rain Light Rain
2:53 AM 39.0 °F 32.3 °F 30.9 °F 73% 29.98 in 10.0 mi NNW 10.4 mph - 0.00 in   Overcast
3:53 AM 41.0 °F 31.9 °F 27.0 °F 57% 29.99 in 10.0 mi NW 19.6 mph - 0.00 in   Mostly Cloudy
4:53 AM 39.9 °F 31.8 °F 27.0 °F 60% 30.02 in 10.0 mi NW 15.0 mph - N/A   Mostly Cloudy
5:53 AM 41.0 °F 33.1 °F 26.1 °F 55% 30.05 in 10.0 mi NW 15.0 mph - N/A   Mostly Cloudy
6:53 AM 41.0 °F 32.5 °F 27.0 °F 57% 30.09 in 10.0 mi NNW 17.3 mph 25.3 mph N/A   Overcast
7:53 AM 42.1 °F 31.7 °F 25.0 °F 51% 30.09 in 10.0 mi NW 27.6 mph 35.7 mph N/A   Overcast
8:53 AM 42.1 °F 33.9 °F 26.1 °F 53% 30.13 in 10.0 mi NW 17.3 mph - N/A   Overcast
9:53 AM 44.1 °F 37.1 °F 27.0 °F 51% 30.16 in 10.0 mi NW 15.0 mph 20.7 mph N/A   Overcast
10:53 AM 46.9 °F - 26.1 °F 44% 30.16 in 10.0 mi NW 20.7 mph 27.6 mph N/A   Overcast
11:53 AM 48.0 °F - 25.0 °F 41% 30.17 in 10.0 mi NW 19.6 mph - N/A   Clear
12:53 PM 48.9 °F - 25.0 °F 39% 30.16 in 10.0 mi NNW 20.7 mph - N/A   Scattered Clouds
1:53 PM 51.1 °F - 21.0 °F 31% 30.14 in 10.0 mi NW 23.0 mph 28.8 mph N/A   Scattered Clouds
2:53 PM 51.1 °F - 25.0 °F 36% 30.12 in 10.0 mi NNW 24.2 mph 31.1 mph N/A   Partly Cloudy
3:53 PM 48.9 °F - 25.0 °F 39% 30.13 in 10.0 mi North 16.1 mph - N/A   Mostly Cloudy
4:53 PM 48.0 °F - 26.1 °F 42% 30.13 in 10.0 mi NNW 9.2 mph - N/A   Overcast
5:53 PM 37.9 °F 35.5 °F 27.0 °F 65% 30.15 in 10.0 mi West 3.5 mph - N/A   Scattered Clouds
6:53 PM 33.1 °F 27.7 °F 26.1 °F 75% 30.18 in 10.0 mi WSW 5.8 mph - N/A   Clear
7:53 PM 30.9 °F 27.5 °F 25.0 °F 79% 30.19 in 10.0 mi South 3.5 mph - N/A   Clear
8:53 PM 30.0 °F 24.1 °F 24.1 °F 79% 30.19 in 10.0 mi South 5.8 mph - N/A   Clear
9:53 PM 28.9 °F 21.9 °F 23.0 °F 78% 30.19 in 10.0 mi SSW 6.9 mph - N/A   Clear
10:53 PM 27.0 °F 19.5 °F 21.9 °F 81% 30.19 in 10.0 mi South 6.9 mph - N/A   Clear
11:53 PM 26.1 °F 21.9 °F 21.0 °F 81% 30.18 in 10.0 mi SSE 3.5 mph - N/A   Clear